Location: Aurora Center
(43.5271°N, 98.5894°W)
Time: 06:50:32
(UTC-05:00)

Courier 1B - Pass Details

Date: 21 July 2024
Orbit: 962 x 1208 km, 28.3° (Epoch: 12 June)

Event Time Altitude Azimuth Distance (km) Brightness Sun altitude
Rises 17:45:05 0° 253° (WSW) 4,019 11.7 34.6°
Reaches altitude 10° 17:48:53 10° 237° (WSW) 3,014 11.1 33.9°
Maximum altitude 17:53:42 19° 196° (SSW) 2,371 9.9 33.0°
Drops below altitude 10° 17:58:20 10° 154° (SSE) 2,888 9.8 32.2°
Sets 18:01:53 0° 137° (SE) 3,794 10.2 31.5°
